KN4CI-1 Weather Reports


Display with metric or nautical units.
time (UTC)temp
F
wind
direction
speed
MPH
gust
MPH
rain 1hr
in
rain 24hr
in
rain mn
in
humidity
%
barometer
mb
20240521224600 93 161 0.0 0.0 0.00 0.00 0.00 11 1013.6
20240521224100 91 266 0.0 0.0 0.00 0.00 0.00 12 1013.6
20240521223555 91 266 0.0 0.0 0.00 0.00 0.00 12 1013.6
20240521223055 90 266 0.0 0.0 0.00 0.00 0.00 12 1013.6
20240521222051 90 183 0.0 0.0 0.00 0.00 0.00 12 1013.6
20240521221551 90 166 0.0 0.0 0.00 0.00 0.00 12 1013.6
20240521221051 91 204 0.0 0.0 0.00 0.00 0.00 12 1013.6
20240521220547 90 184 0.0 0.0 0.00 0.00 0.00 12 1013.6
20240521220047 91 170 0.0 0.0 0.00 0.00 0.00 12 1013.6
20240521215548 90 264 0.0 0.0 0.00 0.00 0.00 12 1013.6
20240521215043 90 180 0.0 0.0 0.00 0.00 0.00 12 1013.6
20240521214543 90 149 0.0 0.0 0.00 0.00 0.00 12 1013.6
20240521214043 92 243 0.0 0.0 0.00 0.00 0.00 12 1013.6
20240521213452 94 162 0.0 0.0 0.00 0.00 0.00 11 1013.6
20240521212952 96 149 0.0 0.0 0.00 0.00 0.00 11 1013.6
20240521212440 98 241 0.0 0.0 0.00 0.00 0.00 10 1013.6
20240521211935 95 191 0.0 0.0 0.00 0.00 0.00 11 1013.6
20240521211435 91 182 0.0 0.0 0.00 0.00 0.00 12 1014.6
20240521210936 90 170 0.0 0.0 0.00 0.00 0.00 12 1014.6
20240521210431 90 147 0.0 0.0 0.00 0.00 0.00 12 1014.6
20240521205931 89 148 0.0 0.0 0.00 0.00 0.00 12 1014.6
20240521205431 89 184 0.0 0.0 0.00 0.00 0.00 12 1014.6
20240521204927 90 155 0.0 0.0 0.00 0.00 0.00 12 1014.6
20240521204427 90 157 0.0 0.0 0.00 0.00 0.00 12 1014.6
20240521203927 90 145 0.0 0.0 0.00 0.00 0.00 12 1014.6
20240521203423 90 160 0.0 0.0 0.00 0.00 0.00 12 1014.6
20240521202923 90 258 0.0 0.0 0.00 0.00 0.00 12 1014.6
20240521202423 90 241 0.0 0.0 0.00 0.00 0.00 12 1014.6
20240521200921 91 238 0.0 0.0 0.00 0.00 0.00 12 1014.6
20240521200414 90 224 0.0 0.0 0.00 0.00 0.00 12 1014.6
20240521195914 90 148 0.0 0.0 0.00 0.00 0.00 12 1014.6
20240521195412 90 266 0.0 0.0 0.00 0.00 0.00 12 1014.6
20240521194907 90 130 0.0 0.0 0.00 0.00 0.00 12 1014.6
20240521194407 91 246 0.0 0.0 0.00 0.00 0.00 12 1014.6
20240521193907 90 174 0.0 0.0 0.00 0.00 0.00 12 1014.6
20240521192905 90 174 0.0 0.0 0.00 0.00 0.00 12 1015.6
20240521192405 90 189 0.0 0.0 0.00 0.00 0.00 12 1015.6
20240521191902 89 216 0.0 0.0 0.00 0.00 0.00 12 1015.6
20240521191402 89 168 0.0 0.0 0.00 0.00 0.00 12 1015.6
20240521190903 89 212 0.0 0.0 0.00 0.00 0.00 12 1015.6
20240521190358 89 251 0.0 0.0 0.00 0.00 0.00 12 1015.6
20240521185859 89 259 0.0 0.0 0.00 0.00 0.00 12 1015.6
20240521185358 89 227 0.0 0.0 0.00 0.00 0.00 12 1015.6
20240521184854 89 114 0.0 0.0 0.00 0.00 0.00 12 1015.6
20240521184354 89 151 0.0 0.0 0.00 0.00 0.00 12 1015.6
20240521183853 88 166 0.0 0.0 0.00 0.00 0.00 13 1015.6
20240521182848 88 184 0.0 0.0 0.00 0.00 0.00 13 1015.6
20240521182349 89 253 0.0 0.0 0.00 0.00 0.00 12 1015.6
20240521181845 89 232 0.0 0.0 0.00 0.00 0.00 12 1015.6
20240521181345 88 135 0.0 0.0 0.00 0.00 0.00 13 1015.6
20240521180845 88 247 0.0 0.0 0.00 0.00 0.00 13 1015.6
20240521180341 88 180 0.0 0.0 0.00 0.00 0.00 13 1015.6
20240521175838 88 261 0.0 0.0 0.00 0.00 0.00 13 1015.6
20240521174336 87 232 0.0 0.0 0.00 0.00 0.00 13 1015.6
20240521173837 87 230 0.0 0.0 0.00 0.00 0.00 13 1015.6
20240521172831 87 204 0.0 0.0 0.00 0.00 0.00 13 1015.6
20240521172330 87 168 0.0 0.0 0.00 0.00 0.00 13 1015.6
20240521171828 87 133 0.0 0.0 0.00 0.00 0.00 13 1015.6
20240521171328 87 161 0.0 0.0 0.00 0.00 0.00 13 1015.6
20240521170828 87 212 0.0 0.0 0.00 0.00 0.00 13 1015.6
20240521170324 86 264 0.0 0.0 0.00 0.00 0.00 13 1016.6
20240521165824 86 228 0.0 0.0 0.00 0.00 0.00 13 1016.6
20240521165322 85 147 0.0 0.0 0.00 0.00 0.00 13 1016.6
20240521164817 85 254 0.0 0.0 0.00 0.00 0.00 13 1016.6
20240521163304 84 193 0.0 0.0 0.00 0.00 0.00 13 1016.6
20240521162802 84 257 0.0 0.0 0.00 0.00 0.00 13 1016.6
20240521162303 84 210 0.0 0.0 0.00 0.00 0.00 13 1016.6
20240521161250 83 247 0.0 0.0 0.00 0.00 0.00 13 1016.6
20240521160750 83 252 0.0 0.0 0.00 0.00 0.00 13 1016.6
20240521155748 83 146 0.0 0.0 0.00 0.00 0.00 14 1016.6
20240521155248 83 179 0.0 0.0 0.00 0.00 0.00 14 1016.6
20240521154746 82 159 0.0 0.0 0.00 0.00 0.00 14 1016.6
20240521154244 82 155 0.0 0.0 0.00 0.00 0.00 14 1016.6
20240521153742 82 175 0.0 0.0 0.00 0.00 0.00 16 1016.6
20240521153238 81 216 0.0 0.0 0.00 0.00 0.00 16 1016.6
20240521152738 81 251 0.0 0.0 0.00 0.00 0.00 17 1016.6
20240521152233 81 253 0.0 0.0 0.00 0.00 0.00 17 1016.6
20240521151729 81 189 0.0 0.0 0.00 0.00 0.00 19 1016.6
20240521150729 81 192 0.0 0.0 0.00 0.00 0.00 20 1016.6
20240521150224 80 251 0.0 0.0 0.00 0.00 0.00 20 1016.6
20240521145724 80 191 0.0 0.0 0.00 0.00 0.00 20 1016.6
20240521145225 79 206 0.0 0.0 0.00 0.00 0.00 21 1016.6
20240521144720 79 259 0.0 0.0 0.00 0.00 0.00 21 1016.6
20240521144216 78 260 0.0 0.0 0.00 0.00 0.00 21 1016.6
20240521143716 78 293 0.0 0.0 0.00 0.00 0.00 22 1016.6
20240521143208 78 264 0.0 0.0 0.00 0.00 0.00 24 1016.6
20240521142704 78 222 0.0 0.0 0.00 0.00 0.00 25 1016.6
20240521141659 77 175 0.0 0.0 0.00 0.00 0.00 32 1016.6
20240521141159 77 273 0.0 0.0 0.00 0.00 0.00 32 1016.6
20240521140154 76 205 0.0 0.0 0.00 0.00 0.00 33 1016.6
20240521134641 74 228 0.0 0.0 0.00 0.00 0.00 38 1016.6
20240521134141 74 216 0.0 0.0 0.00 0.00 0.00 40 1016.6
20240521133641 74 178 0.0 0.0 0.00 0.00 0.00 45 1016.6
20240521133135 73 211 0.0 0.0 0.00 0.00 0.00 50 1016.6
20240521132636 73 198 0.0 0.0 0.00 0.00 0.00 53 1016.6
20240521132136 73 242 0.0 0.0 0.00 0.00 0.00 59 1016.6
20240521131630 73 141 0.0 0.0 0.00 0.00 0.00 62 1016.6
20240521130630 72 141 0.0 0.0 0.00 0.00 0.00 64 1016.6
20240521130122 71 141 0.0 0.0 0.00 0.00 0.00 65 1016.6
20240521125622 71 141 0.0 0.0 0.00 0.00 0.00 66 1016.6
20240521125122 70 141 0.0 0.0 0.00 0.00 0.00 67 1016.6
20240521124619 70 141 0.0 0.0 0.00 0.00 0.00 67 1016.6
20240521124120 69 141 0.0 0.0 0.00 0.00 0.00 67 1016.6
20240521123620 69 141 0.0 0.0 0.00 0.00 0.00 68 1016.6
20240521123117 69 141 0.0 0.0 0.00 0.00 0.00 68 1015.6
20240521122617 68 141 0.0 0.0 0.00 0.00 0.00 68 1015.6
20240521122117 67 141 0.0 0.0 0.00 0.00 0.00 68 1015.6
20240521121612 67 141 0.0 0.0 0.00 0.00 0.00 68 1015.6
20240521121112 66 141 0.0 0.0 0.00 0.00 0.00 68 1015.6
20240521120612 66 141 0.0 0.0 0.00 0.00 0.00 68 1015.6
20240521120109 65 141 0.0 0.0 0.00 0.00 0.00 68 1015.6
20240521115609 65 141 0.0 0.0 0.00 0.00 0.00 68 1015.6
20240521115109 65 141 0.0 0.0 0.00 0.00 0.00 68 1015.6
20240521114605 64 141 0.0 0.0 0.00 0.00 0.00 68 1015.6
20240521114106 64 141 0.0 0.0 0.00 0.00 0.00 67 1015.6
20240521113606 63 141 0.0 0.0 0.00 0.00 0.00 67 1015.6
20240521113057 63 141 0.0 0.0 0.00 0.00 0.00 67 1015.6
20240521112557 63 141 0.0 0.0 0.00 0.00 0.00 66 1015.6
20240521112058 63 141 0.0 0.0 0.00 0.00 0.00 66 1015.6
20240521111552 62 141 0.0 0.0 0.00 0.00 0.00 66 1015.6
20240521111052 62 141 0.0 0.0 0.00 0.00 0.00 66 1015.6
20240521110048 62 141 0.0 0.0 0.00 0.00 0.00 65 1014.6
20240521105548 62 141 0.0 0.0 0.00 0.00 0.00 65 1014.6
20240521105048 62 141 0.0 0.0 0.00 0.00 0.00 64 1014.6
20240521104545 62 141 0.0 0.0 0.00 0.00 0.00 64 1014.6
20240521104045 62 141 0.0 0.0 0.00 0.00 0.00 64 1014.6
20240521103545 62 141 0.0 0.0 0.00 0.00 0.00 64 1014.6
20240521103039 62 141 0.0 0.0 0.00 0.00 0.00 64 1014.6
20240521102539 63 141 0.0 0.0 0.00 0.00 0.00 63 1014.6
20240521102040 63 141 0.0 0.0 0.00 0.00 0.00 64 1014.6
20240521101532 63 141 0.0 0.0 0.00 0.00 0.00 63 1014.6
20240521101032 63 141 0.0 0.0 0.00 0.00 0.00 63 1014.6
20240521100527 63 141 0.0 0.0 0.00 0.00 0.00 63 1014.6
20240521100023 63 141 0.0 0.0 0.00 0.00 0.00 63 1014.6
20240521095523 63 141 0.0 0.0 0.00 0.00 0.00 62 1014.6
20240521095023 64 141 0.0 0.0 0.00 0.00 0.00 62 1014.6
20240521094518 64 141 0.0 0.0 0.00 0.00 0.00 62 1014.6
20240521094018 64 141 0.0 0.0 0.00 0.00 0.00 62 1014.6
20240521093519 64 141 0.0 0.0 0.00 0.00 0.00 61 1014.6
20240521093014 64 141 0.0 0.0 0.00 0.00 0.00 61 1014.6
20240521092014 64 141 0.0 0.0 0.00 0.00 0.00 61 1014.6
20240521091509 64 141 0.0 0.0 0.00 0.00 0.00 60 1014.6
20240521091009 64 141 0.0 0.0 0.00 0.00 0.00 60 1014.6
20240521090510 64 141 0.0 0.0 0.00 0.00 0.00 60 1014.6
20240521090001 65 141 0.0 0.0 0.00 0.00 0.00 60 1014.6
20240521085501 65 141 0.0 0.0 0.00 0.00 0.00 59 1014.6
20240521085001 65 141 0.0 0.0 0.00 0.00 0.00 59 1014.6
20240521084455 65 141 0.0 0.0 0.00 0.00 0.00 59 1014.6
20240521083955 65 141 0.0 0.0 0.00 0.00 0.00 59 1014.6
20240521083456 65 141 0.0 0.0 0.00 0.00 0.00 59 1014.6
20240521082954 65 141 0.0 0.0 0.00 0.00 0.00 58 1014.6
20240521082448 65 141 0.0 0.0 0.00 0.00 0.00 58 1014.6
20240521081949 65 141 0.0 0.0 0.00 0.00 0.00 58 1014.6
20240521081444 65 141 0.0 0.0 0.00 0.00 0.00 58 1014.6
20240521080944 65 141 0.0 0.0 0.00 0.00 0.00 57 1014.6
20240521080444 65 141 0.0 0.0 0.00 0.00 0.00 57 1014.6
20240521075932 65 141 0.0 0.0 0.00 0.00 0.00 57 1014.6
20240521075432 65 141 0.0 0.0 0.00 0.00 0.00 57 1014.6
20240521074932 66 141 0.0 0.0 0.00 0.00 0.00 57 1014.6
20240521074427 66 141 0.0 0.0 0.00 0.00 0.00 57 1014.6
20240521073927 66 141 0.0 0.0 0.00 0.00 0.00 56 1014.6
20240521073427 66 141 0.0 0.0 0.00 0.00 0.00 56 1014.6
20240521072921 66 141 0.0 0.0 0.00 0.00 0.00 56 1014.6
20240521072420 66 141 0.0 0.0 0.00 0.00 0.00 56 1014.6
20240521071921 66 141 0.0 0.0 0.00 0.00 0.00 56 1014.6
20240521071414 66 141 0.0 0.0 0.00 0.00 0.00 56 1014.6
20240521070914 66 141 0.0 0.0 0.00 0.00 0.00 55 1014.6
20240521070414 65 141 0.0 0.0 0.00 0.00 0.00 54 1014.6
20240521065909 65 141 0.0 0.0 0.00 0.00 0.00 54 1014.6
20240521065409 65 141 0.0 0.0 0.00 0.00 0.00 53 1014.6
20240521064909 66 141 0.0 0.0 0.00 0.00 0.00 53 1014.6
20240521064406 66 141 0.0 0.0 0.00 0.00 0.00 53 1014.6
20240521063906 66 141 0.0 0.0 0.00 0.00 0.00 53 1014.6
20240521063406 66 141 0.0 0.0 0.00 0.00 0.00 53 1014.6
20240521062900 66 141 0.0 0.0 0.00 0.00 0.00 53 1014.6
20240521062400 66 141 0.0 0.0 0.00 0.00 0.00 52 1014.6
20240521061901 66 141 0.0 0.0 0.00 0.00 0.00 52 1014.6
20240521061357 66 141 0.0 0.0 0.00 0.00 0.00 51 1014.6
20240521060857 66 141 0.0 0.0 0.00 0.00 0.00 51 1014.6
20240521060357 66 141 0.0 0.0 0.00 0.00 0.00 51 1014.6
20240521055355 67 141 0.0 0.0 0.00 0.00 0.00 50 1014.6
20240521054855 67 141 0.0 0.0 0.00 0.00 0.00 50 1014.6
20240521054348 67 141 0.0 0.0 0.00 0.00 0.00 49 1014.6
20240521053845 67 141 0.0 0.0 0.00 0.00 0.00 48 1014.6
20240521053345 67 141 0.0 0.0 0.00 0.00 0.00 48 1014.6
20240521052839 67 141 0.0 0.0 0.00 0.00 0.00 48 1014.6
20240521052334 67 141 0.0 0.0 0.00 0.00 0.00 47 1014.6
20240521051832 67 141 0.0 0.0 0.00 0.00 0.00 47 1015.6
20240521051328 67 141 0.0 0.0 0.00 0.00 0.00 47 1015.6
20240521050826 67 141 0.0 0.0 0.00 0.00 0.00 47 1015.6
20240521050326 67 141 0.0 0.0 0.00 0.00 0.00 46 1014.6
20240521045823 67 141 0.0 0.0 0.00 0.00 0.00 46 1014.6
20240521045322 67 141 0.0 0.0 0.00 0.00 0.00 46 1014.6
20240521044821 67 141 0.0 0.0 0.00 0.00 0.00 45 1015.6
20240521044317 68 141 0.0 0.0 0.00 0.00 0.00 45 1015.6
20240521043315 68 141 0.0 0.0 0.00 0.00 0.00 44 1015.6
20240521042308 68 141 0.0 0.0 0.00 0.00 0.00 43 1015.6
20240521041305 69 141 0.0 0.0 0.00 0.00 0.00 43 1014.6
20240521040856 69 141 0.0 0.0 0.00 0.00 0.00 43 1014.6
20240521040804 69 141 0.0 0.0 0.00 0.00 0.00 43 1014.6
20240521040304 69 141 0.0 0.0 0.00 0.00 0.00 42 1014.6
20240521035800 69 141 0.0 0.0 0.00 0.00 0.00 42 1014.6
20240521035301 69 141 0.0 0.0 0.00 0.00 0.00 41 1014.6
20240521034801 69 141 0.0 0.0 0.00 0.00 0.00 40 1014.6
20240521034257 69 141 0.0 0.0 0.00 0.00 0.00 40 1014.6
20240521033757 69 141 0.0 0.0 0.00 0.00 0.00 40 1014.6
20240521033257 69 141 0.0 0.0 0.00 0.00 0.00 39 1014.6
20240521032754 70 141 0.0 0.0 0.00 0.00 0.00 38 1014.6
20240521032254 70 141 0.0 0.0 0.00 0.00 0.00 38 1014.6
20240521031754 70 141 0.0 0.0 0.00 0.00 0.00 38 1014.6
20240521031250 70 141 0.0 0.0 0.00 0.00 0.00 37 1014.6
20240521030751 70 141 0.0 0.0 0.00 0.00 0.00 37 1014.6
20240521030251 70 141 0.0 0.0 0.00 0.00 0.00 36 1014.6
20240521025745 71 141 0.0 0.0 0.00 0.00 0.00 35 1014.6
20240521025245 71 141 0.0 0.0 0.00 0.00 0.00 35 1014.6
20240521024746 71 141 0.0 0.0 0.00 0.00 0.00 35 1014.6
20240521024242 71 141 0.0 0.0 0.00 0.00 0.00 34 1014.6
20240521023742 71 141 0.0 0.0 0.00 0.00 0.00 34 1014.6
20240521023242 71 141 0.0 0.0 0.00 0.00 0.00 33 1014.6
20240521022739 72 141 0.0 0.0 0.00 0.00 0.00 33 1014.6
20240521022239 72 141 0.0 0.0 0.00 0.00 0.00 33 1014.6
20240521021739 72 141 0.0 0.0 0.00 0.00 0.00 32 1014.6
20240521021236 72 141 0.0 0.0 0.00 0.00 0.00 32 1014.6
20240521020736 72 141 0.0 0.0 0.00 0.00 0.00 31 1014.6
20240521020238 72 141 0.0 0.0 0.00 0.00 0.00 31 1014.6
20240521015731 73 141 0.0 0.0 0.00 0.00 0.00 31 1014.6
20240521015231 73 141 0.0 0.0 0.00 0.00 0.00 30 1014.6
20240521014731 73 141 0.0 0.0 0.00 0.00 0.00 29 1014.6
20240521014226 73 141 0.0 0.0 0.00 0.00 0.00 28 1014.6
20240521013726 74 141 0.0 0.0 0.00 0.00 0.00 27 1014.6
20240521012720 74 141 0.0 0.0 0.00 0.00 0.00 25 1014.6
20240521012221 75 141 0.0 0.0 0.00 0.00 0.00 25 1014.6
20240521011721 75 141 0.0 0.0 0.00 0.00 0.00 24 1014.6
20240521011217 75 141 0.0 0.0 0.00 0.00 0.00 23 1014.6
20240521010217 76 141 0.0 0.0 0.00 0.00 0.00 22 1014.6
20240521005708 76 141 0.0 0.0 0.00 0.00 0.00 21 1014.6
20240521004706 77 141 0.0 0.0 0.00 0.00 0.00 21 1014.6
20240521004203 78 141 0.0 0.0 0.00 0.00 0.00 20 1014.6
20240521003703 79 141 0.0 0.0 0.00 0.00 0.00 20 1014.6
20240521003203 79 141 0.0 0.0 0.00 0.00 0.00 20 1014.6
20240521002654 80 141 0.0 0.0 0.00 0.00 0.00 17 1014.6
20240521002154 81 141 0.0 3.0 0.00 0.00 0.00 17 1014.6
20240521001654 81 141 0.0 0.0 0.00 0.00 0.00 16 1013.6
20240521001150 82 141 0.0 0.0 0.00 0.00 0.00 14 1013.6
20240521000650 83 141 0.0 0.0 0.00 0.00 0.00 14 1013.6
20240521000151 84 141 0.0 0.0 0.00 0.00 0.00 13 1013.6
20240520235144 85 141 0.0 4.0 0.00 0.00 0.00 13 1013.6
20240520234645 87 141 3.0 4.0 0.00 0.00 0.00 13 1013.6
20240520234141 90 141 0.0 0.0 0.00 0.00 0.00 12 1013.6
20240520233641 93 141 0.0 0.0 0.00 0.00 0.00 11 1013.6
20240520232639 93 141 0.0 4.0 0.00 0.00 0.00 11 1013.6
20240520232140 91 141 3.0 4.0 0.00 0.00 0.00 12 1013.6
20240520231640 87 141 0.0 0.0 0.00 0.00 0.00 15 1013.6
20240520230638 87 141 0.0 3.0 0.00 0.00 0.00 13 1013.6
20240520230138 87 141 0.0 0.0 0.00 0.00 0.00 13 1013.6
20240520225633 88 141 0.0 0.0 0.00 0.00 0.00 13 1013.6
20240520225134 88 141 0.0 0.0 0.00 0.00 0.00 13 1013.6